| time (UTC) | temp F | wind direction | speed MPH | gust MPH | rain 1hr in | rain 24hr in | rain mn in | humidity % | barometer mb |
| 20260507085131 | 50 | 103 | 0.0 | 1.0 | 0.00 | 0.00 | 0.00 | 89 | 1017.8 |
| 20260507084627 | 50 | 114 | 1.0 | 1.0 | 0.00 | 0.00 | 0.00 | 89 | 1017.7 |
| 20260507084124 | 50 | 99 | 1.0 | 2.0 | 0.00 | 0.00 | 0.00 | 89 | 1017.8 |
| 20260507083621 | 50 | 107 | 1.0 | 1.0 | 0.00 | 0.00 | 0.00 | 89 | 1017.8 |
| 20260507083118 | 50 | 173 | 2.0 | 2.0 | 0.00 | 0.00 | 0.00 | 89 | 1017.7 |
| 20260507082614 | 50 | 134 | 1.0 | 2.0 | 0.00 | 0.00 | 0.00 | 89 | 1017.5 |
| 20260507082110 | 50 | 120 | 4.0 | 6.0 | 0.00 | 0.00 | 0.00 | 89 | 1017.8 |
| 20260507081607 | 50 | 129 | 1.0 | 2.0 | 0.00 | 0.00 | 0.00 | 89 | 1017.8 |
| 20260507081104 | 50 | 111 | 3.0 | 3.0 | 0.00 | 0.00 | 0.00 | 90 | 1017.7 |
| 20260507080600 | 50 | 247 | 3.0 | 6.0 | 0.00 | 0.00 | 0.00 | 90 | 1017.8 |
| 20260507080056 | 51 | 165 | 1.0 | 1.0 | 0.00 | 0.00 | 0.00 | 90 | 1017.6 |
| 20260507075551 | 51 | 133 | 4.0 | 5.0 | 0.00 | 0.00 | 0.00 | 90 | 1017.5 |
| 20260507075048 | 51 | 114 | 3.0 | 3.0 | 0.00 | 0.00 | 0.00 | 90 | 1017.7 |
| 20260507074545 | 51 | 66 | 2.0 | 3.0 | 0.00 | 0.00 | 0.00 | 90 | 1017.6 |
| 20260507074043 | 51 | 133 | 3.0 | 3.0 | 0.00 | 0.00 | 0.00 | 91 | 1017.3 |
| 20260507073539 | 51 | 212 | 3.0 | 6.0 | 0.00 | 0.00 | 0.00 | 91 | 1017.7 |
| 20260507073036 | 51 | 157 | 3.0 | 3.0 | 0.00 | 0.00 | 0.00 | 91 | 1017.7 |
| 20260507072533 | 51 | 186 | 2.0 | 2.0 | 0.00 | 0.00 | 0.00 | 91 | 1017.5 |
| 20260507072030 | 51 | 181 | 4.0 | 5.0 | 0.00 | 0.00 | 0.00 | 92 | 1017.4 |
| 20260507071527 | 51 | 130 | 2.0 | 5.0 | 0.00 | 0.00 | 0.00 | 92 | 1017.4 |
| 20260507071024 | 51 | 228 | 2.0 | 5.0 | 0.00 | 0.00 | 0.00 | 92 | 1017.4 |
| 20260507070521 | 51 | 121 | 3.0 | 5.0 | 0.00 | 0.00 | 0.00 | 92 | 1017.4 |
| 20260507070018 | 51 | 145 | 3.0 | 5.0 | 0.00 | 0.00 | 0.00 | 93 | 1017.3 |
| 20260507065514 | 51 | 136 | 2.0 | 2.0 | 0.00 | 0.00 | 0.00 | 93 | 1017.4 |
| 20260507065012 | 51 | 181 | 2.0 | 2.0 | 0.00 | 0.00 | 0.00 | 93 | 1017.4 |
| 20260507064510 | 51 | 210 | 5.0 | 7.0 | 0.00 | 0.00 | 0.00 | 93 | 1017.6 |
| 20260507064008 | 51 | 159 | 6.0 | 7.0 | 0.00 | 0.00 | 0.00 | 93 | 1017.6 |
| 20260507063504 | 51 | 165 | 2.0 | 5.0 | 0.00 | 0.00 | 0.00 | 93 | 1017.5 |
| 20260507063002 | 51 | 147 | 4.0 | 5.0 | 0.00 | 0.00 | 0.00 | 93 | 1017.5 |
| 20260507062458 | 51 | 103 | 1.0 | 2.0 | 0.00 | 0.00 | 0.00 | 93 | 1017.6 |
| 20260507061956 | 51 | 155 | 1.0 | 3.0 | 0.00 | 0.00 | 0.00 | 93 | 1017.5 |
| 20260507061454 | 51 | 150 | 4.0 | 6.0 | 0.00 | 0.00 | 0.00 | 93 | 1017.6 |
| 20260507060952 | 51 | 105 | 2.0 | 2.0 | 0.00 | 0.00 | 0.00 | 93 | 1017.8 |
| 20260507060448 | 52 | 141 | 2.0 | 5.0 | 0.00 | 0.00 | 0.00 | 92 | 1017.9 |
| 20260507055945 | 52 | 94 | 1.0 | 2.0 | 0.00 | 0.00 | 0.00 | 92 | 1017.6 |
| 20260507055440 | 52 | 103 | 1.0 | 1.0 | 0.00 | 0.00 | 0.00 | 92 | 1017.6 |
| 20260507054937 | 52 | 109 | 2.0 | 3.0 | 0.00 | 0.00 | 0.00 | 91 | 1017.8 |
| 20260507054433 | 52 | 103 | 2.0 | 2.0 | 0.00 | 0.00 | 0.00 | 91 | 1017.8 |
| 20260507053931 | 52 | 127 | 1.0 | 2.0 | 0.00 | 0.00 | 0.00 | 90 | 1017.6 |
| 20260507053428 | 52 | 113 | 1.0 | 1.0 | 0.00 | 0.00 | 0.00 | 90 | 1017.7 |
| 20260507052927 | 52 | 101 | 0.0 | 1.0 | 0.00 | 0.00 | 0.00 | 90 | 1017.6 |
| 20260507052424 | 52 | 104 | 1.0 | 1.0 | 0.00 | 0.00 | 0.00 | 89 | 1017.7 |
| 20260507051921 | 52 | 77 | 1.0 | 1.0 | 0.00 | 0.00 | 0.00 | 89 | 1017.7 |
| 20260507051418 | 52 | 117 | 1.0 | 1.0 | 0.00 | 0.00 | 0.00 | 89 | 1017.8 |
| 20260507050915 | 53 | 132 | 1.0 | 1.0 | 0.00 | 0.00 | 0.00 | 88 | 1017.5 |
| 20260507050412 | 53 | 104 | 3.0 | 6.0 | 0.00 | 0.00 | 0.00 | 88 | 1018.0 |
| 20260507045909 | 53 | 91 | 2.0 | 3.0 | 0.00 | 0.00 | 0.00 | 88 | 1017.6 |
| 20260507045405 | 53 | 191 | 4.0 | 5.0 | 0.00 | 0.00 | 0.00 | 88 | 1017.7 |
| 20260507044902 | 53 | 224 | 3.0 | 3.0 | 0.00 | 0.00 | 0.00 | 88 | 1017.8 |
| 20260507044359 | 53 | 139 | 2.0 | 2.0 | 0.00 | 0.00 | 0.00 | 88 | 1017.6 |
| 20260507043855 | 53 | 75 | 3.0 | 3.0 | 0.00 | 0.00 | 0.00 | 88 | 1017.8 |
| 20260507043352 | 53 | 147 | 3.0 | 5.0 | 0.00 | 0.00 | 0.00 | 88 | 1017.7 |
| 20260507042848 | 53 | 176 | 2.0 | 3.0 | 0.00 | 0.00 | 0.00 | 88 | 1017.8 |
| 20260507042344 | 53 | 114 | 1.0 | 1.0 | 0.00 | 0.00 | 0.00 | 87 | 1017.6 |
| 20260507041840 | 53 | 57 | 2.0 | 2.0 | 0.00 | 0.00 | 0.00 | 87 | 1017.5 |
| 20260507041337 | 53 | 112 | 1.0 | 1.0 | 0.00 | 0.00 | 0.00 | 86 | 1017.5 |
| 20260507040835 | 53 | 109 | 1.0 | 1.0 | 0.00 | 0.00 | 0.00 | 86 | 1017.8 |
| 20260507040330 | 54 | 107 | 1.0 | 2.0 | 0.00 | 0.00 | 0.00 | 85 | 1017.7 |
| 20260507035827 | 54 | 161 | 1.0 | 1.0 | 0.00 | 0.00 | 0.00 | 85 | 1017.4 |
| 20260507035322 | 54 | 211 | 2.0 | 3.0 | 0.00 | 0.00 | 0.00 | 84 | 1017.4 |
| 20260507034820 | 54 | 150 | 3.0 | 5.0 | 0.00 | 0.00 | 0.00 | 84 | 1017.3 |
| 20260507034316 | 54 | 197 | 4.0 | 6.0 | 0.00 | 0.00 | 0.00 | 84 | 1017.4 |
| 20260507033815 | 54 | 127 | 3.0 | 5.0 | 0.00 | 0.00 | 0.00 | 84 | 1017.5 |
| 20260507033312 | 54 | 153 | 4.0 | 6.0 | 0.00 | 0.00 | 0.00 | 83 | 1017.5 |
| 20260507032809 | 54 | 143 | 1.0 | 2.0 | 0.00 | 0.00 | 0.00 | 83 | 1017.3 |
| 20260507032306 | 54 | 173 | 2.0 | 3.0 | 0.00 | 0.00 | 0.00 | 82 | 1017.4 |
| 20260507031802 | 55 | 69 | 3.0 | 3.0 | 0.00 | 0.00 | 0.00 | 82 | 1017.2 |
| 20260507031259 | 55 | 192 | 3.0 | 3.0 | 0.00 | 0.00 | 0.00 | 81 | 1017.2 |
| 20260507030755 | 55 | 123 | 2.0 | 2.0 | 0.00 | 0.00 | 0.00 | 81 | 1017.2 |
| 20260507030253 | 55 | 172 | 3.0 | 3.0 | 0.00 | 0.00 | 0.00 | 80 | 1017.3 |
| 20260507025750 | 55 | 151 | 3.0 | 3.0 | 0.00 | 0.00 | 0.00 | 80 | 1017.0 |
| 20260507025247 | 55 | 167 | 1.0 | 2.0 | 0.00 | 0.00 | 0.00 | 79 | 1016.9 |
| 20260507024745 | 55 | 106 | 3.0 | 6.0 | 0.00 | 0.00 | 0.00 | 79 | 1016.9 |
| 20260507024242 | 55 | 119 | 1.0 | 1.0 | 0.00 | 0.00 | 0.00 | 79 | 1017.2 |
| 20260507023737 | 55 | 130 | 2.0 | 2.0 | 0.00 | 0.00 | 0.00 | 78 | 1017.0 |
| 20260507023235 | 56 | 135 | 1.0 | 2.0 | 0.00 | 0.00 | 0.00 | 78 | 1016.8 |
| 20260507022732 | 56 | 97 | 1.0 | 3.0 | 0.00 | 0.00 | 0.00 | 78 | 1016.8 |
| 20260507022228 | 56 | 114 | 1.0 | 2.0 | 0.00 | 0.00 | 0.00 | 78 | 1016.9 |
| 20260507021724 | 56 | 160 | 3.0 | 5.0 | 0.00 | 0.00 | 0.00 | 78 | 1017.0 |
| 20260507021220 | 56 | 122 | 2.0 | 3.0 | 0.00 | 0.00 | 0.00 | 78 | 1016.8 |
| 20260507020718 | 56 | 127 | 2.0 | 2.0 | 0.00 | 0.00 | 0.00 | 78 | 1016.8 |
| 20260507020214 | 56 | 180 | 5.0 | 6.0 | 0.00 | 0.00 | 0.00 | 78 | 1016.9 |
| 20260507015712 | 56 | 103 | 0.0 | 0.0 | 0.00 | 0.00 | 0.00 | 78 | 1016.8 |
| 20260507015209 | 56 | 138 | 1.0 | 2.0 | 0.00 | 0.00 | 0.00 | 78 | 1016.9 |
| 20260507014706 | 56 | 123 | 1.0 | 1.0 | 0.00 | 0.00 | 0.00 | 78 | 1017.0 |
| 20260507014202 | 56 | 118 | 1.0 | 2.0 | 0.00 | 0.00 | 0.00 | 78 | 1017.0 |
| 20260507013659 | 56 | 175 | 2.0 | 3.0 | 0.00 | 0.00 | 0.00 | 77 | 1016.9 |
| 20260507013156 | 56 | 128 | 1.0 | 2.0 | 0.00 | 0.00 | 0.00 | 77 | 1016.8 |
| 20260507012654 | 56 | 169 | 1.0 | 1.0 | 0.00 | 0.00 | 0.00 | 77 | 1016.9 |
| 20260507012149 | 56 | 95 | 2.0 | 2.0 | 0.00 | 0.00 | 0.00 | 77 | 1017.0 |
| 20260507011647 | 56 | 215 | 2.0 | 3.0 | 0.00 | 0.00 | 0.00 | 78 | 1017.0 |
| 20260507011143 | 56 | 221 | 1.0 | 2.0 | 0.00 | 0.00 | 0.00 | 78 | 1017.0 |
| 20260507010638 | 56 | 146 | 2.0 | 2.0 | 0.00 | 0.00 | 0.00 | 78 | 1017.0 |
| 20260507010134 | 56 | 138 | 3.0 | 3.0 | 0.00 | 0.00 | 0.00 | 78 | 1017.0 |
| 20260507005632 | 56 | 193 | 3.0 | 3.0 | 0.00 | 0.00 | 0.00 | 77 | 1017.2 |
| 20260507005127 | 56 | 118 | 2.0 | 2.0 | 0.00 | 0.00 | 0.00 | 78 | 1016.9 |
| 20260507004624 | 56 | 222 | 4.0 | 5.0 | 0.00 | 0.00 | 0.00 | 78 | 1016.9 |
| 20260507004122 | 56 | 161 | 1.0 | 2.0 | 0.00 | 0.00 | 0.00 | 78 | 1016.7 |
| 20260507003618 | 56 | 149 | 2.0 | 3.0 | 0.00 | 0.00 | 0.00 | 77 | 1016.9 |
| 20260507003113 | 56 | 120 | 3.0 | 3.0 | 0.00 | 0.00 | 0.00 | 77 | 1017.0 |
| 20260507002610 | 56 | 115 | 1.0 | 2.0 | 0.00 | 0.00 | 0.00 | 77 | 1017.0 |
| 20260507002105 | 56 | 122 | 2.0 | 3.0 | 0.00 | 0.00 | 0.00 | 78 | 1017.0 |
| 20260507001603 | 56 | 174 | 4.0 | 7.0 | 0.00 | 0.00 | 0.00 | 77 | 1017.2 |
| 20260507001100 | 56 | 151 | 5.0 | 6.0 | 0.00 | 0.00 | 0.00 | 78 | 1017.0 |
| 20260507000556 | 56 | 97 | 0.0 | 1.0 | 0.00 | 0.00 | 0.00 | 78 | 1017.2 |
| 20260507000052 | 56 | 163 | 4.0 | 5.0 | 0.00 | 0.00 | 0.00 | 78 | 1017.5 |
| 20260506235550 | 55 | 124 | 2.0 | 3.0 | 0.00 | 0.00 | 0.00 | 79 | 1017.2 |
| 20260506235044 | 56 | 209 | 7.0 | 9.0 | 0.00 | 0.00 | 0.00 | 78 | 1016.9 |
| 20260506234542 | 56 | 136 | 3.0 | 3.0 | 0.00 | 0.00 | 0.00 | 78 | 1017.2 |
| 20260506234039 | 56 | 176 | 5.0 | 7.0 | 0.00 | 0.00 | 0.00 | 77 | 1017.2 |
| 20260506233536 | 56 | 169 | 5.0 | 8.0 | 0.00 | 0.00 | 0.00 | 77 | 1016.9 |
| 20260506233033 | 56 | 155 | 3.0 | 5.0 | 0.00 | 0.00 | 0.00 | 77 | 1017.0 |
| 20260506232529 | 56 | 98 | 3.0 | 5.0 | 0.00 | 0.00 | 0.00 | 77 | 1017.4 |
| 20260506232025 | 56 | 208 | 4.0 | 6.0 | 0.00 | 0.00 | 0.00 | 77 | 1017.2 |
| 20260506231522 | 56 | 200 | 3.0 | 3.0 | 0.00 | 0.00 | 0.00 | 77 | 1017.5 |
| 20260506231020 | 56 | 103 | 3.0 | 3.0 | 0.00 | 0.00 | 0.00 | 76 | 1017.2 |
| 20260506230516 | 56 | 119 | 1.0 | 1.0 | 0.00 | 0.00 | 0.00 | 76 | 1016.9 |
| 20260506230014 | 56 | 128 | 2.0 | 2.0 | 0.00 | 0.00 | 0.00 | 76 | 1017.2 |
| 20260506225511 | 56 | 147 | 1.0 | 2.0 | 0.00 | 0.00 | 0.00 | 76 | 1017.2 |
| 20260506225007 | 56 | 165 | 4.0 | 6.0 | 0.00 | 0.00 | 0.00 | 76 | 1017.2 |
| 20260506224504 | 56 | 260 | 4.0 | 5.0 | 0.00 | 0.00 | 0.00 | 75 | 1017.2 |
| 20260506224000 | 56 | 227 | 2.0 | 3.0 | 0.00 | 0.00 | 0.00 | 76 | 1017.2 |
| 20260506223456 | 56 | 193 | 2.0 | 2.0 | 0.00 | 0.00 | 0.00 | 75 | 1017.3 |
| 20260506222953 | 56 | 127 | 2.0 | 2.0 | 0.00 | 0.00 | 0.00 | 76 | 1017.2 |
| 20260506222450 | 56 | 327 | 3.0 | 3.0 | 0.00 | 0.00 | 0.00 | 75 | 1017.0 |
| 20260506221946 | 56 | 205 | 4.0 | 7.0 | 0.00 | 0.00 | 0.00 | 75 | 1017.4 |
| 20260506221444 | 56 | 201 | 5.0 | 7.0 | 0.00 | 0.00 | 0.00 | 74 | 1017.4 |
| 20260506220942 | 56 | 323 | 1.0 | 2.0 | 0.00 | 0.00 | 0.00 | 74 | 1017.3 |
| 20260506220437 | 57 | 303 | 2.0 | 3.0 | 0.00 | 0.00 | 0.00 | 73 | 1017.4 |
| 20260506215934 | 57 | 191 | 4.0 | 6.0 | 0.00 | 0.00 | 0.00 | 72 | 1017.3 |
| 20260506215430 | 57 | 140 | 5.0 | 6.0 | 0.00 | 0.00 | 0.00 | 72 | 1017.3 |
| 20260506214926 | 57 | 211 | 4.0 | 6.0 | 0.00 | 0.00 | 0.00 | 72 | 1017.3 |
| 20260506214423 | 57 | 186 | 2.0 | 2.0 | 0.00 | 0.00 | 0.00 | 72 | 1017.3 |
| 20260506213921 | 57 | 139 | 2.0 | 2.0 | 0.00 | 0.00 | 0.00 | 73 | 1017.4 |
| 20260506213418 | 57 | 46 | 2.0 | 2.0 | 0.00 | 0.00 | 0.00 | 73 | 1017.4 |
| 20260506212915 | 56 | 152 | 2.0 | 3.0 | 0.00 | 0.00 | 0.00 | 74 | 1017.3 |
| 20260506212411 | 56 | 106 | 1.0 | 1.0 | 0.00 | 0.00 | 0.00 | 75 | 1017.4 |
| 20260506211906 | 56 | 89 | 1.0 | 2.0 | 0.00 | 0.00 | 0.00 | 74 | 1017.5 |
| 20260506211402 | 56 | 136 | 2.0 | 2.0 | 0.00 | 0.00 | 0.00 | 75 | 1017.6 |
| 20260506210900 | 56 | 150 | 3.0 | 3.0 | 0.00 | 0.00 | 0.00 | 74 | 1017.8 |
| 20260506210356 | 56 | 143 | 3.0 | 5.0 | 0.00 | 0.00 | 0.00 | 75 | 1017.5 |
| 20260506205854 | 56 | 152 | 4.0 | 5.0 | 0.00 | 0.00 | 0.00 | 74 | 1017.4 |
| 20260506205349 | 56 | 216 | 5.0 | 7.0 | 0.00 | 0.00 | 0.00 | 74 | 1017.4 |
| 20260506204846 | 56 | 207 | 4.0 | 6.0 | 0.00 | 0.00 | 0.00 | 75 | 1017.3 |
| 20260506204344 | 56 | 275 | 4.0 | 6.0 | 0.00 | 0.00 | 0.00 | 75 | 1017.3 |
| 20260506203841 | 56 | 96 | 4.0 | 6.0 | 0.00 | 0.00 | 0.00 | 75 | 1017.3 |
| 20260506203338 | 56 | 236 | 5.0 | 8.0 | 0.00 | 0.00 | 0.00 | 75 | 1017.5 |
| 20260506202835 | 56 | 222 | 3.0 | 5.0 | 0.00 | 0.00 | 0.00 | 76 | 1017.4 |
| 20260506202332 | 56 | 162 | 5.0 | 7.0 | 0.00 | 0.00 | 0.00 | 75 | 1017.3 |
| 20260506201828 | 56 | 186 | 5.0 | 7.0 | 0.00 | 0.00 | 0.00 | 75 | 1017.2 |
| 20260506201326 | 56 | 228 | 4.0 | 7.0 | 0.00 | 0.00 | 0.00 | 75 | 1017.4 |
| 20260506200823 | 56 | 241 | 3.0 | 5.0 | 0.00 | 0.00 | 0.00 | 76 | 1017.3 |
| 20260506200319 | 56 | 246 | 3.0 | 5.0 | 0.00 | 0.00 | 0.00 | 75 | 1017.2 |
| 20260506195815 | 56 | 142 | 3.0 | 3.0 | 0.00 | 0.00 | 0.00 | 75 | 1017.0 |
| 20260506195312 | 56 | 65 | 2.0 | 3.0 | 0.00 | 0.00 | 0.00 | 76 | 1017.2 |
| 20260506194809 | 55 | 79 | 1.0 | 2.0 | 0.00 | 0.00 | 0.00 | 78 | 1017.0 |
| 20260506194305 | 55 | 274 | 5.0 | 7.0 | 0.00 | 0.00 | 0.00 | 78 | 1017.2 |
| 20260506193803 | 55 | 158 | 3.0 | 6.0 | 0.00 | 0.00 | 0.00 | 78 | 1017.2 |
| 20260506193300 | 55 | 270 | 2.0 | 3.0 | 0.00 | 0.00 | 0.00 | 79 | 1017.2 |
| 20260506192756 | 55 | 179 | 3.0 | 3.0 | 0.00 | 0.00 | 0.00 | 80 | 1017.2 |
| 20260506192253 | 55 | 311 | 3.0 | 3.0 | 0.00 | 0.00 | 0.00 | 80 | 1016.9 |
| 20260506191750 | 55 | 117 | 2.0 | 2.0 | 0.00 | 0.00 | 0.00 | 80 | 1016.9 |
| 20260506191246 | 55 | 132 | 5.0 | 7.0 | 0.00 | 0.00 | 0.00 | 80 | 1016.9 |
| 20260506190744 | 55 | 62 | 2.0 | 2.0 | 0.00 | 0.00 | 0.00 | 82 | 1017.2 |
| 20260506190240 | 55 | 173 | 2.0 | 2.0 | 0.00 | 0.00 | 0.00 | 82 | 1017.0 |
| 20260506185737 | 54 | 130 | 1.0 | 2.0 | 0.00 | 0.00 | 0.00 | 83 | 1017.0 |
| 20260506185234 | 54 | 93 | 0.0 | 0.0 | 0.00 | 0.00 | 0.00 | 85 | 1016.9 |
| 20260506184731 | 54 | 143 | 2.0 | 2.0 | 0.00 | 0.00 | 0.00 | 84 | 1016.8 |
| 20260506184228 | 54 | 145 | 1.0 | 2.0 | 0.00 | 0.00 | 0.00 | 85 | 1017.0 |
| 20260506183725 | 53 | 104 | 2.0 | 2.0 | 0.00 | 0.00 | 0.00 | 85 | 1016.9 |
| 20260506183220 | 53 | 190 | 3.0 | 3.0 | 0.00 | 0.00 | 0.00 | 86 | 1017.0 |
| 20260506182718 | 53 | 219 | 1.0 | 3.0 | 0.00 | 0.00 | 0.00 | 87 | 1016.9 |
| 20260506182215 | 53 | 98 | 0.0 | 1.0 | 0.00 | 0.00 | 0.00 | 88 | 1017.0 |
| 20260506181713 | 53 | 305 | 2.0 | 2.0 | 0.00 | 0.00 | 0.00 | 88 | 1017.3 |
| 20260506181210 | 53 | 106 | 2.0 | 2.0 | 0.00 | 0.00 | 0.00 | 88 | 1016.8 |
| 20260506180707 | 53 | 297 | 2.0 | 3.0 | 0.00 | 0.00 | 0.00 | 89 | 1016.9 |
| 20260506180203 | 53 | 63 | 1.0 | 1.0 | 0.00 | 0.00 | 0.00 | 90 | 1016.8 |
| 20260506175659 | 52 | 125 | 3.0 | 3.0 | 0.00 | 0.00 | 0.00 | 90 | 1016.6 |
| 20260506175156 | 52 | 114 | 2.0 | 2.0 | 0.00 | 0.00 | 0.00 | 91 | 1016.7 |
| 20260506174649 | 53 | 163 | 2.0 | 3.0 | 0.00 | 0.00 | 0.00 | 90 | 1016.8 |
| 20260506174145 | 53 | 131 | 2.0 | 2.0 | 0.00 | 0.00 | 0.00 | 92 | 1016.6 |
| 20260506173643 | 52 | 194 | 2.0 | 3.0 | 0.00 | 0.00 | 0.00 | 93 | 1016.4 |
| 20260506173134 | 52 | 266 | 1.0 | 2.0 | 0.00 | 0.00 | 0.00 | 93 | 1016.7 |
| 20260506172631 | 52 | 107 | 1.0 | 1.0 | 0.00 | 0.00 | 0.00 | 94 | 1016.7 |
| 20260506172127 | 52 | 244 | 5.0 | 7.0 | 0.00 | 0.00 | 0.00 | 94 | 1016.8 |
| 20260506171625 | 52 | 75 | 1.0 | 1.0 | 0.00 | 0.00 | 0.00 | 94 | 1016.8 |
| 20260506171122 | 52 | 185 | 3.0 | 3.0 | 0.00 | 0.00 | 0.00 | 95 | 1016.8 |
| 20260506170619 | 52 | 76 | 1.0 | 1.0 | 0.00 | 0.00 | 0.00 | 95 | 1017.0 |
| 20260506170111 | 52 | 95 | 1.0 | 2.0 | 0.00 | 0.00 | 0.00 | 95 | 1016.9 |
| 20260506165610 | 51 | 102 | 2.0 | 2.0 | 0.00 | 0.00 | 0.00 | 95 | 1016.8 |
| 20260506165105 | 51 | 97 | 1.0 | 1.0 | 0.00 | 0.00 | 0.00 | 95 | 1016.7 |
| 20260506164603 | 51 | 145 | 3.0 | 5.0 | 0.00 | 0.00 | 0.00 | 95 | 1016.6 |
| 20260506164100 | 51 | 139 | 3.0 | 3.0 | 0.00 | 0.00 | 0.00 | 95 | 1016.9 |
| 20260506163555 | 51 | 109 | 2.0 | 2.0 | 0.00 | 0.00 | 0.00 | 95 | 1016.7 |
| 20260506163052 | 51 | 101 | 1.0 | 1.0 | 0.00 | 0.00 | 0.00 | 95 | 1016.5 |
| 20260506162548 | 52 | 118 | 1.0 | 2.0 | 0.00 | 0.00 | 0.00 | 94 | 1016.5 |
| 20260506162045 | 52 | 85 | 0.0 | 0.0 | 0.00 | 0.00 | 0.00 | 95 | 1016.3 |
| 20260506161543 | 52 | 209 | 4.0 | 6.0 | 0.00 | 0.00 | 0.00 | 95 | 1016.3 |
| 20260506161039 | 51 | 106 | 2.0 | 3.0 | 0.00 | 0.00 | 0.00 | 95 | 1016.1 |
| 20260506160537 | 51 | 179 | 2.0 | 3.0 | 0.00 | 0.00 | 0.00 | 95 | 1016.0 |
| 20260506160034 | 51 | 166 | 3.0 | 5.0 | 0.00 | 0.00 | 0.00 | 94 | 1016.0 |
| 20260506155532 | 51 | 124 | 2.0 | 3.0 | 0.00 | 0.00 | 0.00 | 95 | 1016.3 |
| 20260506153709 | 51 | 116 | 1.0 | 2.0 | 0.00 | 0.00 | 0.00 | 95 | 1016.6 |
| 20260506153207 | 51 | 119 | 1.0 | 1.0 | 0.00 | 0.00 | 0.00 | 95 | 1016.6 |
| 20260506152703 | 51 | 102 | 1.0 | 1.0 | 0.00 | 0.00 | 0.00 | 95 | 1016.5 |
| 20260506152201 | 51 | 82 | 1.0 | 1.0 | 0.00 | 0.00 | 0.00 | 95 | 1016.5 |
| 20260506151700 | 51 | 180 | 4.0 | 5.0 | 0.00 | 0.00 | 0.00 | 95 | 1016.4 |
| 20260506151156 | 51 | 156 | 2.0 | 2.0 | 0.00 | 0.00 | 0.00 | 95 | 1016.2 |
| 20260506150652 | 51 | 41 | 2.0 | 3.0 | 0.00 | 0.00 | 0.00 | 95 | 1016.2 |
| 20260506150150 | 51 | 131 | 2.0 | 2.0 | 0.00 | 0.00 | 0.00 | 95 | 1016.0 |
| 20260506145646 | 51 | 138 | 2.0 | 6.0 | 0.00 | 0.00 | 0.00 | 95 | 1015.9 |
| 20260506145143 | 51 | 133 | 2.0 | 3.0 | 0.00 | 0.00 | 0.00 | 95 | 1016.0 |
| 20260506144641 | 51 | 120 | 1.0 | 2.0 | 0.00 | 0.00 | 0.00 | 95 | 1016.2 |
| 20260506144137 | 51 | 145 | 3.0 | 3.0 | 0.00 | 0.00 | 0.00 | 95 | 1016.3 |
| 20260506143635 | 51 | 149 | 1.0 | 1.0 | 0.00 | 0.00 | 0.00 | 95 | 1016.5 |
| 20260506143133 | 51 | 190 | 2.0 | 2.0 | 0.00 | 0.00 | 0.00 | 94 | 1016.5 |
| 20260506142631 | 51 | 206 | 1.0 | 2.0 | 0.00 | 0.00 | 0.00 | 94 | 1016.4 |
| 20260506142129 | 51 | 107 | 1.0 | 1.0 | 0.00 | 0.00 | 0.00 | 94 | 1016.1 |
| 20260506141626 | 51 | 228 | 2.0 | 2.0 | 0.00 | 0.00 | 0.00 | 94 | 1016.2 |
| 20260506141125 | 51 | 147 | 2.0 | 2.0 | 0.00 | 0.00 | 0.00 | 94 | 1015.8 |
| 20260506140622 | 51 | 124 | 2.0 | 2.0 | 0.00 | 0.00 | 0.00 | 94 | 1016.1 |
| 20260506140119 | 51 | 127 | 2.0 | 2.0 | 0.00 | 0.00 | 0.00 | 94 | 1015.9 |
| 20260506135616 | 51 | 109 | 1.0 | 1.0 | 0.00 | 0.00 | 0.00 | 94 | 1015.9 |
| 20260506135112 | 51 | 136 | 0.0 | 1.0 | 0.00 | 0.00 | 0.00 | 93 | 1015.9 |
| 20260506134609 | 51 | 132 | 1.0 | 2.0 | 0.00 | 0.00 | 0.00 | 93 | 1015.8 |
| 20260506134104 | 51 | 94 | 1.0 | 1.0 | 0.00 | 0.00 | 0.00 | 93 | 1015.9 |
| 20260506133602 | 51 | 86 | 1.0 | 1.0 | 0.00 | 0.00 | 0.00 | 93 | 1015.8 |
| 20260506133059 | 51 | 175 | 3.0 | 3.0 | 0.00 | 0.00 | 0.00 | 93 | 1016.0 |
| 20260506132556 | 51 | 295 | 2.0 | 2.0 | 0.00 | 0.00 | 0.00 | 92 | 1016.0 |
| 20260506132053 | 51 | 164 | 3.0 | 3.0 | 0.00 | 0.00 | 0.00 | 92 | 1015.6 |
| 20260506131550 | 51 | 126 | 1.0 | 1.0 | 0.00 | 0.00 | 0.00 | 92 | 1015.7 |
| 20260506131046 | 52 | 164 | 3.0 | 3.0 | 0.00 | 0.00 | 0.00 | 92 | 1015.7 |
| 20260506130543 | 52 | 113 | 2.0 | 2.0 | 0.00 | 0.00 | 0.00 | 91 | 1015.9 |
| 20260506130041 | 52 | 99 | 1.0 | 1.0 | 0.00 | 0.00 | 0.00 | 91 | 1015.4 |
| 20260506125539 | 52 | 192 | 3.0 | 5.0 | 0.00 | 0.00 | 0.00 | 91 | 1015.5 |
| 20260506125037 | 52 | 129 | 2.0 | 3.0 | 0.00 | 0.00 | 0.00 | 92 | 1015.4 |
| 20260506124534 | 52 | 123 | 1.0 | 2.0 | 0.00 | 0.00 | 0.00 | 92 | 1015.4 |
| 20260506124032 | 52 | 105 | 2.0 | 3.0 | 0.00 | 0.00 | 0.00 | 92 | 1015.3 |
| 20260506123529 | 52 | 151 | 1.0 | 2.0 | 0.00 | 0.00 | 0.00 | 92 | 1015.4 |
| 20260506123027 | 52 | 114 | 1.0 | 1.0 | 0.00 | 0.00 | 0.00 | 92 | 1015.5 |
| 20260506122524 | 52 | 162 | 4.0 | 6.0 | 0.00 | 0.00 | 0.00 | 92 | 1015.2 |
| 20260506122022 | 52 | 79 | 2.0 | 3.0 | 0.00 | 0.00 | 0.00 | 91 | 1015.3 |
| 20260506121519 | 52 | 167 | 2.0 | 3.0 | 0.00 | 0.00 | 0.00 | 91 | 1015.4 |
| 20260506121015 | 52 | 76 | 2.0 | 3.0 | 0.00 | 0.00 | 0.00 | 91 | 1015.1 |
| 20260506120514 | 52 | 217 | 2.0 | 3.0 | 0.00 | 0.00 | 0.00 | 91 | 1015.4 |
| 20260506120011 | 52 | 115 | 1.0 | 1.0 | 0.00 | 0.00 | 0.00 | 91 | 1015.1 |
| 20260506115508 | 52 | 178 | 3.0 | 3.0 | 0.00 | 0.00 | 0.00 | 91 | 1015.1 |
| 20260506115007 | 52 | 192 | 2.0 | 2.0 | 0.00 | 0.00 | 0.00 | 91 | 1015.0 |
| 20260506114504 | 52 | 102 | 1.0 | 1.0 | 0.00 | 0.00 | 0.00 | 91 | 1015.1 |
| 20260506114002 | 52 | 187 | 3.0 | 3.0 | 0.00 | 0.00 | 0.00 | 90 | 1015.0 |
| 20260506113459 | 52 | 93 | 1.0 | 2.0 | 0.00 | 0.00 | 0.00 | 90 | 1015.0 |
| 20260506112956 | 52 | 91 | 2.0 | 2.0 | 0.00 | 0.00 | 0.00 | 89 | 1014.9 |
| 20260506112453 | 52 | 206 | 2.0 | 3.0 | 0.00 | 0.00 | 0.00 | 89 | 1015.1 |
| 20260506111950 | 52 | 129 | 2.0 | 3.0 | 0.00 | 0.00 | 0.00 | 89 | 1015.1 |
| 20260506111449 | 52 | 108 | 1.0 | 2.0 | 0.00 | 0.00 | 0.00 | 88 | 1014.9 |
| 20260506110945 | 52 | 103 | 1.0 | 1.0 | 0.00 | 0.00 | 0.00 | 89 | 1015.0 |
| 20260506110443 | 52 | 94 | 3.0 | 3.0 | 0.00 | 0.00 | 0.00 | 89 | 1015.0 |
| 20260506105939 | 52 | 84 | 1.0 | 1.0 | 0.00 | 0.00 | 0.00 | 89 | 1014.8 |
| 20260506105436 | 52 | 207 | 2.0 | 3.0 | 0.00 | 0.00 | 0.00 | 89 | 1014.9 |
| 20260506104933 | 52 | 169 | 1.0 | 1.0 | 0.00 | 0.00 | 0.00 | 89 | 1014.7 |
| 20260506104431 | 52 | 177 | 3.0 | 5.0 | 0.00 | 0.00 | 0.00 | 89 | 1014.6 |
| 20260506103929 | 52 | 192 | 2.0 | 3.0 | 0.00 | 0.00 | 0.00 | 89 | 1014.6 |
| 20260506103427 | 52 | 151 | 2.0 | 3.0 | 0.00 | 0.00 | 0.00 | 89 | 1014.4 |
| 20260506102923 | 52 | 208 | 3.0 | 5.0 | 0.00 | 0.00 | 0.00 | 89 | 1014.7 |
| 20260506102421 | 52 | 131 | 3.0 | 5.0 | 0.00 | 0.00 | 0.00 | 89 | 1014.7 |
| 20260506101918 | 52 | 254 | 4.0 | 7.0 | 0.00 | 0.00 | 0.00 | 89 | 1014.5 |
| 20260506101414 | 52 | 117 | 2.0 | 3.0 | 0.00 | 0.00 | 0.00 | 89 | 1014.4 |
| 20260506100912 | 52 | 114 | 1.0 | 2.0 | 0.00 | 0.00 | 0.00 | 89 | 1014.6 |
| 20260506100410 | 52 | 211 | 2.0 | 2.0 | 0.00 | 0.00 | 0.00 | 89 | 1014.3 |
| 20260506095908 | 52 | 158 | 2.0 | 2.0 | 0.00 | 0.00 | 0.00 | 89 | 1014.2 |
| 20260506095406 | 52 | 174 | 3.0 | 3.0 | 0.00 | 0.00 | 0.00 | 89 | 1014.3 |
| 20260506094902 | 52 | 225 | 4.0 | 5.0 | 0.00 | 0.00 | 0.00 | 89 | 1014.3 |
| 20260506094401 | 52 | 237 | 6.0 | 8.0 | 0.00 | 0.00 | 0.00 | 89 | 1014.2 |
| 20260506093858 | 52 | 220 | 6.0 | 8.0 | 0.00 | 0.00 | 0.00 | 88 | 1014.1 |
| 20260506093355 | 52 | 116 | 3.0 | 3.0 | 0.00 | 0.00 | 0.00 | 88 | 1014.2 |
| 20260506092853 | 52 | 205 | 5.0 | 8.0 | 0.00 | 0.00 | 0.00 | 88 | 1014.4 |
| 20260506092351 | 52 | 215 | 4.0 | 6.0 | 0.00 | 0.00 | 0.00 | 88 | 1014.3 |
| 20260506091847 | 53 | 136 | 2.0 | 2.0 | 0.00 | 0.00 | 0.00 | 88 | 1014.2 |
| 20260506091345 | 52 | 159 | 2.0 | 3.0 | 0.00 | 0.00 | 0.00 | 88 | 1014.1 |
| 20260506090842 | 52 | 193 | 3.0 | 3.0 | 0.00 | 0.00 | 0.00 | 88 | 1013.9 |
| 20260506090340 | 52 | 177 | 4.0 | 5.0 | 0.00 | 0.00 | 0.00 | 88 | 1014.0 |
| 20260506085836 | 52 | 159 | 3.0 | 3.0 | 0.00 | 0.00 | 0.00 | 88 | 1014.0 |